User: anonymous   Login
Location: Unspecified
(0.0000°N, 0.0000°E)
Time: 20:48:46
(UTC+02:00)
Language:

Cosmos 1295 Rocket - Orbit

View from above orbital plane
View from above orbital plane
View from above satellite
View from above satellite

Ground track
Ground track

The orbit data is extracted from the following two-line orbital elements,

1 12682U 81077B   17173.15585586 +.00000103 +00000-0 +86256-4 0  9999
2 12682 082.9162 012.4203 0033328 332.2886 027.6494 13.78533324803543
Epoch (UTC): 22 June 2017 03:44:25
Eccentricity: 0.0033328
inclination: 82.9162°
perigee height: 944 km
apogee height: 993 km
right ascension of ascending node: 12.4203°
argument of perigee: 332.2886°
revolutions per day: 13.78533324
mean anomaly at epoch: 27.6494°
orbit number at epoch: 80354

The dashed part of the orbit path shows where the satellite is in the earth's shadow,  

DLR